User: anonymous   Login
Location: Unspecified
(0.0000°N, 0.0000°E)
Time: 17:20:22
(UTC+02:00)
Language:

Centaur AC-64 - Orbit

View from above orbital plane
View from above orbital plane
View from above satellite
View from above satellite

Ground track
Ground track

The orbit data is extracted from the following two-line orbital elements,

1 15874U 85055B   18145.47624866 +.00001260 +00000-0 +56073-3 0  9993
2 15874 023.1503 256.4726 6569862 182.1779 172.2233 03.20003426341413
Epoch (UTC): 25 May 2018 11:25:47
Eccentricity: 0.6569862
inclination: 23.1503°
perigee height: 294 km
apogee height: 25853 km
right ascension of ascending node: 256.4726°
argument of perigee: 182.1779°
revolutions per day: 3.20003426
mean anomaly at epoch: 172.2233°
orbit number at epoch: 34141

The dashed part of the orbit path shows where the satellite is in the earth's shadow,  

DLR